Date String (YYYY-MM-DD hh:mm:ss) UTC,Instrument flags,Ambient pressure (hPa),Sample flow (lpm),Bypass flow (lpm),Sample temperature (°C),Ambient temperature (°C),ASC tube jacket temperature (°C),LED temperature (°C),Box temperature (°C),Sample RH (%),Span deviation,Mass concentration (μg/m³),Mass concentration (μg/m³),Mass concentration (μg/m³)
DateTimeUTC,F1_M11,P_M11,Q1_M11,Q2_M11,T1_M11,T2_M11,T3_M11,T4_M11,T5_M11,U1_M11,ZSPAN_M11,X0_M11,X2_M11,X1_M11
2022-11-13 20:00:00,,0819.1,5.01,0.00,24.3,23.2,00.0,33.0,26.2,07.3,0002.1,0010.95,0006.57,0006.04
2022-11-13 20:01:00,,0819.1,5.01,0.00,24.3,23.2,00.0,33.0,26.2,07.2,0003.9,0010.81,0006.55,0006.02
2022-11-13 20:02:00,,0819.1,5.01,0.00,24.3,23.2,00.0,33.0,26.2,07.1,0003.9,0010.96,0006.53,0006.01
2022-11-13 20:03:00,,0819.1,4.99,0.00,24.3,23.2,00.0,33.0,26.3,07.1,0003.1,0011.07,0006.48,0006.01
2022-11-13 20:04:00,,0819.1,5.00,0.00,24.3,23.2,00.0,33.0,26.3,07.1,0003.4,0012.25,0006.49,0006.00
2022-11-13 20:05:00,,0819.1,5.03,0.00,24.3,23.2,00.0,33.1,26.3,07.1,0003.0,0012.53,0006.50,0005.99
2022-11-13 20:06:00,,0819.1,4.99,0.00,24.3,23.2,00.0,33.1,26.3,07.2,0004.0,0012.69,0006.51,0005.98
2022-11-13 20:07:00,,0819.1,4.99,0.00,24.3,23.3,00.0,33.1,26.3,07.2,0002.7,0013.08,0006.54,0005.99
2022-11-13 20:08:00,,0819.1,5.02,0.00,24.3,23.3,00.0,33.1,26.3,07.2,0003.0,0013.29,0006.61,0006.01
2022-11-13 20:09:00,,0819.1,5.00,0.00,24.4,23.3,00.0,33.1,26.3,07.3,0002.2,0013.29,0006.64,0006.03
2022-11-13 20:10:00,,0819.1,4.99,0.00,24.4,23.3,00.0,33.1,26.3,07.3,0002.0,0013.19,0006.63,0006.03
2022-11-13 20:11:00,,0819.2,5.01,0.00,24.4,23.3,00.0,33.1,26.3,07.3,0002.1,0013.35,0006.61,0006.02
2022-11-13 20:12:00,,0819.1,4.99,0.00,24.4,23.4,00.0,33.1,26.4,07.3,0001.0,0013.58,0006.65,0006.05
2022-11-13 20:13:00,,0819.1,5.00,0.00,24.4,23.4,00.0,33.2,26.3,07.3,0000.3,0013.41,0006.69,0006.09
2022-11-13 20:14:00,,0819.1,5.01,0.00,24.4,23.4,00.0,33.2,26.4,07.3,0000.7,0014.02,0006.78,0006.13
2022-11-13 20:15:00,,0819.1,5.01,0.00,24.4,23.4,00.0,33.2,26.4,07.5,0000.6,0012.91,0006.80,0006.15
2022-11-13 20:16:00,,0819.2,4.97,0.00,24.5,23.4,00.0,33.2,26.4,07.5,-000.2,0012.88,0006.82,0006.19
2022-11-13 20:17:00,,0819.2,5.01,0.00,24.5,23.4,00.0,33.2,26.4,07.6,-000.3,0013.57,0006.87,0006.24
2022-11-13 20:18:00,,0819.2,5.01,0.00,24.5,23.5,00.0,33.2,26.4,07.5,0000.3,0013.57,0006.89,0006.31
2022-11-13 20:19:00,,0819.1,4.98,0.00,24.5,23.5,00.0,33.2,26.4,07.6,0000.1,0013.63,0006.93,0006.37
2022-11-13 20:20:00,,0819.1,5.02,0.00,24.5,23.5,00.0,33.2,26.4,07.5,0000.1,0013.66,0006.96,0006.41
2022-11-13 20:21:00,,0819.2,5.00,0.00,24.5,23.5,00.0,33.3,26.5,07.5,0001.1,0014.34,0007.04,0006.47
2022-11-13 20:22:00,,0819.1,4.99,0.00,24.5,23.5,00.0,33.3,26.5,07.5,0001.1,0014.73,0007.14,0006.54
2022-11-13 20:23:00,,0819.2,5.00,0.00,24.5,23.5,00.0,33.3,26.5,07.5,0000.8,0014.93,0007.19,0006.59
2022-11-13 20:24:00,,0819.2,5.02,0.00,24.6,23.5,00.0,33.3,26.5,07.5,0000.8,0014.65,0007.24,0006.63
2022-11-13 20:25:00,,0819.2,4.99,0.00,24.6,23.5,00.0,33.3,26.5,07.5,0000.6,0013.96,0007.23,0006.65
2022-11-13 20:26:00,,0819.1,4.99,0.00,24.6,23.5,00.0,33.3,26.5,07.4,0001.1,0013.75,0007.23,0006.66
2022-11-13 20:27:00,,0819.2,5.00,0.00,24.6,23.6,00.0,33.3,26.6,07.4,0002.1,0013.96,0007.25,0006.66
2022-11-13 20:28:00,,0819.1,5.00,0.00,24.6,23.6,00.0,33.3,26.6,07.3,0002.2,0013.54,0007.24,0006.66
2022-11-13 20:29:00,,0819.1,4.99,0.00,24.6,23.6,00.0,33.4,26.6,07.4,0001.7,0013.28,0007.21,0006.64
2022-11-13 20:30:00,,0819.2,4.99,0.00,24.6,23.6,00.0,33.4,26.6,07.5,0002.2,0013.13,0007.21,0006.64
2022-11-13 20:31:00,,0819.1,5.03,0.00,24.7,23.6,00.0,33.4,26.6,07.4,0002.3,0013.52,0007.24,0006.62
2022-11-13 20:32:00,,0819.2,4.98,0.00,24.7,23.6,00.0,33.4,26.6,07.4,0001.4,0013.07,0007.22,0006.59
2022-11-13 20:33:00,,0819.1,4.99,0.00,24.7,23.6,00.0,33.4,26.6,07.3,0000.9,0012.73,0007.20,0006.57
2022-11-13 20:34:00,,0819.1,5.01,0.00,24.7,23.7,00.0,33.4,26.6,07.4,0001.6,0012.47,0007.20,0006.57
2022-11-13 20:35:00,,0819.2,5.01,0.00,24.7,23.7,00.0,33.4,26.6,07.4,0002.1,0012.51,0007.21,0006.55
2022-11-13 20:36:00,,0819.1,4.99,0.00,24.7,23.7,00.0,33.5,26.7,07.1,0002.7,0012.54,0007.19,0006.50
2022-11-13 20:37:00,,0819.1,5.01,0.00,24.7,23.6,00.0,33.5,26.7,07.1,0003.1,0013.03,0007.14,0006.47
2022-11-13 20:38:00,,0819.1,5.00,0.00,24.7,23.6,00.0,33.5,26.7,07.1,0001.6,0013.43,0007.07,0006.40
2022-11-13 20:39:00,,0819.1,5.00,0.00,24.7,23.6,00.0,33.5,26.7,07.0,0001.2,0012.98,0006.95,0006.32
2022-11-13 20:40:00,,0819.1,5.00,0.00,24.7,23.7,00.0,33.5,26.7,07.1,0002.1,0012.80,0006.92,0006.26
2022-11-13 20:41:00,,0819.1,5.00,0.00,24.8,23.7,00.0,33.5,26.7,07.1,0001.5,0012.96,0006.90,0006.21
2022-11-13 20:42:00,,0819.1,4.99,0.00,24.8,23.7,00.0,33.5,26.7,07.1,0001.5,0012.63,0006.85,0006.19
2022-11-13 20:43:00,,0819.1,4.98,0.00,24.8,23.7,00.0,33.5,26.7,07.1,0001.6,0012.69,0006.81,0006.15
2022-11-13 20:44:00,,0819.1,5.03,0.00,24.8,23.8,00.0,33.5,26.7,07.1,0003.2,0012.87,0006.75,0006.09
2022-11-13 20:45:00,,0819.1,4.97,0.00,24.8,23.8,00.0,33.5,26.8,07.1,0002.9,0013.09,0006.67,0006.04
2022-11-13 20:46:00,,0819.1,5.01,0.00,24.8,23.8,00.0,33.6,26.8,07.2,0002.6,0013.39,0006.64,0006.01
2022-11-13 20:47:00,,0819.1,5.00,0.00,24.8,23.8,00.0,33.6,26.8,07.2,0002.7,0013.32,0006.63,0006.04
2022-11-13 20:48:00,,0819.1,5.00,0.00,24.9,23.8,00.0,33.6,26.8,07.3,0001.8,0012.87,0006.69,0006.09
2022-11-13 20:49:00,,0819.1,5.00,0.00,24.9,23.8,00.0,33.6,26.8,07.3,0001.8,0012.19,0006.78,0006.18
2022-11-13 20:50:00,,0819.1,4.98,0.00,24.9,23.8,00.0,33.6,26.8,07.3,0002.3,0012.34,0006.93,0006.29
2022-11-13 20:51:00,,0819.1,5.00,0.00,24.9,23.9,00.0,33.6,26.8,07.4,0001.7,0012.94,0007.02,0006.38
2022-11-13 20:52:00,,0819.2,5.01,0.00,24.9,23.9,00.0,33.6,26.8,07.7,0001.2,0012.93,0007.14,0006.50
2022-11-13 20:53:00,,0819.1,5.00,0.00,24.9,23.8,00.0,33.6,26.9,07.7,0001.6,0013.15,0007.32,0006.67
2022-11-13 20:54:00,,0819.1,4.98,0.00,24.9,23.8,00.0,33.7,26.9,07.7,0001.8,0013.35,0007.55,0006.85
2022-11-13 20:55:00,,0819.1,5.01,0.00,24.9,23.8,00.0,33.7,26.9,07.7,0001.3,0013.62,0007.77,0007.03
2022-11-13 20:56:00,,0819.1,5.01,0.00,24.9,23.8,00.0,33.7,26.9,07.6,0001.6,0014.11,0008.02,0007.21
2022-11-13 20:57:00,,0819.2,5.00,0.00,24.9,23.8,00.0,33.7,26.8,07.6,0003.4,0015.12,0008.18,0007.36
2022-11-13 20:58:00,,0819.2,5.00,0.00,24.9,23.8,00.0,33.7,26.9,07.5,0003.4,0016.14,0008.29,0007.48
2022-11-13 20:59:00,,0819.1,5.00,0.00,24.9,23.7,00.0,33.7,26.9,07.5,0003.7,0016.36,0008.40,0007.56
